Regional Weather Roundup
Issued by NWS

Home | Current Version | Previous Version | Graphics & Text | Print | Product List | Glossary On
Versions: 1 2 3 4 5 6 7 8 9 10 11 12 13 14 15 16 17 18 19 20 21 22 23 24 25 26 27 28 29 30 31 32 33 34 35 36 37 38 39 40 41 42 43 44 45 46 47 48 49 50
000
ASUS43 KOAX 301610
RWRNE

WEATHER ROUNDUP FOR NEBRASKA
NATIONAL WEATHER SERVICE OMAHA NE
1100 AM CDT TUE AUG 30 2016

NOTES: SATELLITE DATA IS BEING USED TO AUGMENT CLOUD COVER ABOVE
       12000 FEET.
       "FAIR" INDICATES FEW OR NO CLOUDS BELOW 12,000 FEET WITH NO
       SIGNIFICANT WEATHER AND/OR OBSTRUCTIONS TO VISIBILITY.

  * THESE STATIONS DO NOT REPORT WEATHER SUCH AS RAIN...SNOW OR FOG.

NEZ001>004-019>022-054>056-301700-
NEBRASKA PANHANDLE

CITY           SKY/WX    TMP DP  RH WIND       PRES   REMARKS
SCOTTSBLUFF    SUNNY     68  57  68 NW6       30.30R
ALLIANCE       SUNNY     74  62  66 SE6       30.29S
CHADRON        CLOUDY    66  61  84 SW6       30.27F
KIMBALL        SUNNY     73  58  58 E6        30.34R
SIDNEY         SUNNY     73  58  59 E5        30.31S
$$

NEZ057>060-069>072-079>082-301700-
SOUTHWEST NEBRASKA

CITY           SKY/WX    TMP DP  RH WIND       PRES   REMARKS
NORTH PLATTE   CLOUDY    75  65  70 CALM      30.26S
IMPERIAL       CLOUDY    70  64  81 E6        30.27S
LEXINGTON      CLOUDY    70  66  85 CALM      30.26S
MCCOOK         CLOUDY    69  66  90 SE5       30.25S
OGALLALA         N/A     76  60  55 SE6       30.27
$$

NEZ005>010-023>029-035>040-094-301700-
NORTH CENTRAL NEBRASKA

CITY           SKY/WX    TMP DP  RH WIND       PRES   REMARKS
VALENTINE      SUNNY     78  62  57 E5        30.24R
AINSWORTH      SUNNY     76  66  71 CALM      30.24R
BROKEN BOW     CLOUDY    69  68  96 SW5       30.25F FOG
O`NEILL        PTSUNNY   79  66  66 SE7       30.24R
ORD            PTSUNNY   71  65  81 SW5       30.23S
THEDFORD       MOSUNNY   79  64  60 CALM      30.26S
$$

NEZ041-046>049-061>064-073>077-083>087-301700-
SOUTH CENTRAL NEBRASKA

CITY           SKY/WX    TMP DP  RH WIND       PRES   REMARKS
GRAND ISLAND   CLOUDY    74  66  76 E3        30.24R
AURORA         PTSUNNY   74  70  86 CALM      30.24R
HASTINGS       CLOUDY    74  66  76 CALM      30.24S
HEBRON         MOSUNNY   74  70  87 CALM      30.21S
HOLDREGE       CLOUDY    70  65  85 CALM      30.25R
KEARNEY *      CLOUDY    72  64  78 NW3       30.24R
YORK           LGT RAIN  73  68  83 CALM      30.23S
$$

NEZ011>018-030>034-042>045-301700-
NORTHEAST NEBRASKA

CITY           SKY/WX    TMP DP  RH WIND       PRES   REMARKS
NORFOLK        CLOUDY    72  68  87 E7        30.23S
ALBION         CLOUDY    72  69  89 S5        30.24S
BLAIR          PTSUNNY   73  68  86 NE8       30.23S
FREMONT        DRIZZLE   72  69  91 NE5       30.24R
TEKAMAH        LGT RAIN  71  67  87 CALM      30.23R
WAYNE          MOSUNNY   73  69  86 S7        30.24S
$$

NEZ050>053-065>068-078-088>093-301700-
SOUTHEAST NEBRASKA

CITY           SKY/WX    TMP DP  RH WIND       PRES   REMARKS
LINCOLN        CLOUDY    72  69  90 NE8       30.23R
OMAHA EPPLEY   CLOUDY    75  68  78 N5        30.22R
BEATRICE       CLOUDY    74  69  85 NE3       30.22R
FALLS CITY     LGT RAIN  73  71  93 NE7       30.20R
NEBRASKA CITY  PTSUNNY   72  72 100 NE6       30.22R
PLATTSMOUTH    CLOUDY    73  70  93 CALM      30.22S
$$

NEZ044-045-051>053-067-301700-
OMAHA AREA

CITY           SKY/WX    TMP DP  RH WIND       PRES   REMARKS
OMAHA EPPLEY   CLOUDY    75  68  78 N5        30.22R
BLAIR          PTSUNNY   73  68  86 NE8       30.23S
FREMONT        DRIZZLE   72  69  91 NE5       30.24R
MILLARD        CLOUDY   N/A N/A N/A SE3       30.22S
OFFUTT AFB     PTSUNNY   74  71  89 NE2       30.21S
PLATTSMOUTH    CLOUDY    73  70  93 CALM      30.22S
WAHOO          PTSUNNY   73  69  87 E6        30.23S
$$



USA.gov is the U.S. government's official web portal to all federal, state and local government web resources and services.